owner,sensor,date,latitude,longitude,sea_surface_height_above_sea_level,qcFlag 
TCOON,ioos:station:TCOON:068:1,2014-09-01T02:12:00Z,27.2970,-97.4049,4.367,1111122 
TCOON,ioos:station:TCOON:068:1,2014-09-01T03:12:00Z,27.2970,-97.4049,4.368,1111122 
TCOON,ioos:station:TCOON:068:1,2014-09-01T04:12:00Z,27.2970,-97.4049,4.37,1111122 
TCOON,ioos:station:TCOON:068:1,2014-09-01T05:12:00Z,27.2970,-97.4049,4.371,1111122 
TCOON,ioos:station:TCOON:068:1,2014-09-01T06:12:00Z,27.2970,-97.4049,4.372,1111122 
TCOON,ioos:station:TCOON:068:1,2014-09-01T07:12:00Z,27.2970,-97.4049,4.374,1111122 
TCOON,ioos:station:TCOON:068:1,2014-09-01T08:18:00Z,27.2970,-97.4049,4.378,1111122 
TCOON,ioos:station:TCOON:068:1,2014-09-01T09:12:00Z,27.2970,-97.4049,4.379,1111122 
TCOON,ioos:station:TCOON:068:1,2014-09-01T10:12:00Z,27.2970,-97.4049,4.379,1111122 
TCOON,ioos:station:TCOON:068:1,2014-09-01T11:12:00Z,27.2970,-97.4049,4.376,1111122 
TCOON,ioos:station:TCOON:068:1,2014-09-01T12:12:00Z,27.2970,-97.4049,4.371,1111122 
TCOON,ioos:station:TCOON:068:1,2014-09-01T13:12:00Z,27.2970,-97.4049,4.368,1111122 
TCOON,ioos:station:TCOON:068:1,2014-09-01T14:12:00Z,27.2970,-97.4049,4.368,1111122 
TCOON,ioos:station:TCOON:068:1,2014-09-01T15:12:00Z,27.2970,-97.4049,4.364,1111122 
TCOON,ioos:station:TCOON:068:1,2014-09-01T16:12:00Z,27.2970,-97.4049,4.362,1111122 
TCOON,ioos:station:TCOON:068:1,2014-09-01T17:12:00Z,27.2970,-97.4049,4.363,1111122 
TCOON,ioos:station:TCOON:068:1,2014-09-01T18:12:00Z,27.2970,-97.4049,4.361,1111122 
TCOON,ioos:station:TCOON:068:1,2014-09-01T19:12:00Z,27.2970,-97.4049,4.354,1111122 
TCOON,ioos:station:TCOON:068:1,2014-09-01T20:12:00Z,27.2970,-97.4049,4.35,1111122 
TCOON,ioos:station:TCOON:068:1,2014-09-01T21:12:00Z,27.2970,-97.4049,4.347,1111122 
TCOON,ioos:station:TCOON:068:1,2014-09-01T22:12:00Z,27.2970,-97.4049,4.353,1111122 
TCOON,ioos:station:TCOON:068:1,2014-09-01T23:18:00Z,27.2970,-97.4049,4.358,1111122 
TCOON,ioos:station:TCOON:068:1,2014-09-02T00:12:00Z,27.2970,-97.4049,4.36,1111122 
TCOON,ioos:station:TCOON:068:1,2014-09-02T01:12:00Z,27.2970,-97.4049,4.354,1111122 
TCOON,ioos:station:TCOON:068:1,2014-09-02T02:12:00Z,27.2970,-97.4049,4.352,1111122 
TCOON,ioos:station:TCOON:068:1,2014-09-02T03:12:00Z,27.2970,-97.4049,4.355,1111122 
TCOON,ioos:station:TCOON:068:1,2014-09-02T04:12:00Z,27.2970,-97.4049,4.355,1111122 
TCOON,ioos:station:TCOON:068:1,2014-09-02T05:12:00Z,27.2970,-97.4049,4.351,1111122 
TCOON,ioos:station:TCOON:068:1,2014-09-02T06:36:00Z,27.2970,-97.4049,4.354,1111122 
TCOON,ioos:station:TCOON:068:1,2014-09-02T07:12:00Z,27.2970,-97.4049,4.356,1111122 
TCOON,ioos:station:TCOON:068:1,2014-09-02T08:18:00Z,27.2970,-97.4049,4.36,1111122 
TCOON,ioos:station:TCOON:068:1,2014-09-02T09:12:00Z,27.2970,-97.4049,4.362,1111122 
TCOON,ioos:station:TCOON:068:1,2014-09-02T10:12:00Z,27.2970,-97.4049,4.362,1111122 
TCOON,ioos:station:TCOON:068:1,2014-09-02T11:12:00Z,27.2970,-97.4049,4.359,1111122 
TCOON,ioos:station:TCOON:068:1,2014-09-02T12:12:00Z,27.2970,-97.4049,4.359,1111122 
TCOON,ioos:station:TCOON:068:1,2014-09-02T13:12:00Z,27.2970,-97.4049,4.364,1111122 
TCOON,ioos:station:TCOON:068:1,2014-09-02T14:12:00Z,27.2970,-97.4049,4.365,1111122 
TCOON,ioos:station:TCOON:068:1,2014-09-02T15:12:00Z,27.2970,-97.4049,4.357,1111122 
TCOON,ioos:station:TCOON:068:1,2014-09-02T16:12:00Z,27.2970,-97.4049,4.345,1111122 
TCOON,ioos:station:TCOON:068:1,2014-09-02T17:12:00Z,27.2970,-97.4049,4.337,1111122 
TCOON,ioos:station:TCOON:068:1,2014-09-02T18:12:00Z,27.2970,-97.4049,4.325,1111122 
TCOON,ioos:station:TCOON:068:1,2014-09-02T19:12:00Z,27.2970,-97.4049,4.327,1111122 
TCOON,ioos:station:TCOON:068:1,2014-09-02T20:12:00Z,27.2970,-97.4049,4.335,1111122 
TCOON,ioos:station:TCOON:068:1,2014-09-02T21:12:00Z,27.2970,-97.4049,4.338,1111122 
TCOON,ioos:station:TCOON:068:1,2014-09-02T22:48:00Z,27.2970,-97.4049,4.337,1111122 
TCOON,ioos:station:TCOON:068:1,2014-09-03T00:06:00Z,27.2970,-97.4049,4.349,1111122 
TCOON,ioos:station:TCOON:068:1,2014-09-03T01:12:00Z,27.2970,-97.4049,4.354,1111122 
TCOON,ioos:station:TCOON:068:1,2014-09-03T02:12:00Z,27.2970,-97.4049,4.357,1111122 
TCOON,ioos:station:TCOON:068:1,2014-09-03T03:12:00Z,27.2970,-97.4049,4.346,1111122 
TCOON,ioos:station:TCOON:068:1,2014-09-03T04:12:00Z,27.2970,-97.4049,4.331,1111122 
TCOON,ioos:station:TCOON:068:1,2014-09-03T05:18:00Z,27.2970,-97.4049,4.358,1111122 
TCOON,ioos:station:TCOON:068:1,2014-09-03T06:12:00Z,27.2970,-97.4049,4.362,1111122 
TCOON,ioos:station:TCOON:068:1,2014-09-03T07:12:00Z,27.2970,-97.4049,4.366,1111122 
TCOON,ioos:station:TCOON:068:1,2014-09-03T08:12:00Z,27.2970,-97.4049,4.372,1111122 
TCOON,ioos:station:TCOON:068:1,2014-09-03T09:12:00Z,27.2970,-97.4049,4.37,1111122 
TCOON,ioos:station:TCOON:068:1,2014-09-03T10:12:00Z,27.2970,-97.4049,4.367,1111122 
TCOON,ioos:station:TCOON:068:1,2014-09-03T11:12:00Z,27.2970,-97.4049,4.365,1111122 
TCOON,ioos:station:TCOON:068:1,2014-09-03T12:12:00Z,27.2970,-97.4049,4.364,1111122 
TCOON,ioos:station:TCOON:068:1,2014-09-03T13:12:00Z,27.2970,-97.4049,4.367,1111122 
TCOON,ioos:station:TCOON:068:1,2014-09-03T14:12:00Z,27.2970,-97.4049,4.369,1111122 
TCOON,ioos:station:TCOON:068:1,2014-09-03T15:12:00Z,27.2970,-97.4049,4.363,1111122 
TCOON,ioos:station:TCOON:068:1,2014-09-03T16:12:00Z,27.2970,-97.4049,4.341,1111122 
TCOON,ioos:station:TCOON:068:1,2014-09-03T17:18:00Z,27.2970,-97.4049,4.325,1111122 
TCOON,ioos:station:TCOON:068:1,2014-09-03T18:12:00Z,27.2970,-97.4049,4.326,1111122 
TCOON,ioos:station:TCOON:068:1,2014-09-03T19:12:00Z,27.2970,-97.4049,4.393,1111122 
TCOON,ioos:station:TCOON:068:1,2014-09-03T20:12:00Z,27.2970,-97.4049,4.392,1111122 
TCOON,ioos:station:TCOON:068:1,2014-09-03T21:12:00Z,27.2970,-97.4049,4.401,1111122 
TCOON,ioos:station:TCOON:068:1,2014-09-03T22:18:00Z,27.2970,-97.4049,4.399,1111122 
TCOON,ioos:station:TCOON:068:1,2014-09-03T23:18:00Z,27.2970,-97.4049,4.376,1111122 
TCOON,ioos:station:TCOON:068:1,2014-09-04T00:18:00Z,27.2970,-97.4049,4.368,1111122 
TCOON,ioos:station:TCOON:068:1,2014-09-04T01:12:00Z,27.2970,-97.4049,4.367,1111122 
TCOON,ioos:station:TCOON:068:1,2014-09-04T02:24:00Z,27.2970,-97.4049,4.374,1111122 
TCOON,ioos:station:TCOON:068:1,2014-09-04T03:12:00Z,27.2970,-97.4049,4.378,1111122 
TCOON,ioos:station:TCOON:068:1,2014-09-04T04:12:00Z,27.2970,-97.4049,4.378,1111122 
TCOON,ioos:station:TCOON:068:1,2014-09-04T05:12:00Z,27.2970,-97.4049,4.375,1111122 
TCOON,ioos:station:TCOON:068:1,2014-09-04T06:18:00Z,27.2970,-97.4049,4.38,1111122 
TCOON,ioos:station:TCOON:068:1,2014-09-04T07:12:00Z,27.2970,-97.4049,4.38,1111122 
TCOON,ioos:station:TCOON:068:1,2014-09-04T08:12:00Z,27.2970,-97.4049,4.379,1111122 
TCOON,ioos:station:TCOON:068:1,2014-09-04T09:18:00Z,27.2970,-97.4049,4.367,1111122 
TCOON,ioos:station:TCOON:068:1,2014-09-04T10:12:00Z,27.2970,-97.4049,4.366,1111122 
TCOON,ioos:station:TCOON:068:1,2014-09-04T11:18:00Z,27.2970,-97.4049,4.372,1111122 
TCOON,ioos:station:TCOON:068:1,2014-09-04T12:12:00Z,27.2970,-97.4049,4.371,1111122 
TCOON,ioos:station:TCOON:068:1,2014-09-04T13:12:00Z,27.2970,-97.4049,4.374,1111122 
TCOON,ioos:station:TCOON:068:1,2014-09-04T14:18:00Z,27.2970,-97.4049,4.378,1111122 
TCOON,ioos:station:TCOON:068:1,2014-09-04T15:12:00Z,27.2970,-97.4049,4.371,1111122 
TCOON,ioos:station:TCOON:068:1,2014-09-04T16:12:00Z,27.2970,-97.4049,4.367,1111122 
TCOON,ioos:station:TCOON:068:1,2014-09-04T17:12:00Z,27.2970,-97.4049,4.369,1111122 
TCOON,ioos:station:TCOON:068:1,2014-09-04T18:12:00Z,27.2970,-97.4049,4.379,1111122 
TCOON,ioos:station:TCOON:068:1,2014-09-04T19:12:00Z,27.2970,-97.4049,4.381,1111122 
TCOON,ioos:station:TCOON:068:1,2014-09-04T20:12:00Z,27.2970,-97.4049,4.384,1111122 
TCOON,ioos:station:TCOON:068:1,2014-09-04T21:12:00Z,27.2970,-97.4049,4.384,1111122 
TCOON,ioos:station:TCOON:068:1,2014-09-04T22:18:00Z,27.2970,-97.4049,4.378,1111122 
TCOON,ioos:station:TCOON:068:1,2014-09-04T23:18:00Z,27.2970,-97.4049,4.37,1111122 
TCOON,ioos:station:TCOON:068:1,2014-09-05T00:18:00Z,27.2970,-97.4049,4.371,1111122 
TCOON,ioos:station:TCOON:068:1,2014-09-05T01:12:00Z,27.2970,-97.4049,4.37,1111122 
TCOON,ioos:station:TCOON:068:1,2014-09-05T02:12:00Z,27.2970,-97.4049,4.378,1111122 
TCOON,ioos:station:TCOON:068:1,2014-09-05T03:12:00Z,27.2970,-97.4049,4.38,1111122 
TCOON,ioos:station:TCOON:068:1,2014-09-05T04:12:00Z,27.2970,-97.4049,4.38,1111122 
TCOON,ioos:station:TCOON:068:1,2014-09-05T05:12:00Z,27.2970,-97.4049,4.376,1111122 
TCOON,ioos:station:TCOON:068:1,2014-09-05T06:54:00Z,27.2970,-97.4049,4.387,1111122 
TCOON,ioos:station:TCOON:068:1,2014-09-05T07:12:00Z,27.2970,-97.4049,4.386,1111122 
TCOON,ioos:station:TCOON:068:1,2014-09-05T08:12:00Z,27.2970,-97.4049,4.391,1111122 
TCOON,ioos:station:TCOON:068:1,2014-09-05T11:18:00Z,27.2970,-97.4049,4.386,1111122 
TCOON,ioos:station:TCOON:068:1,2014-09-05T12:12:00Z,27.2970,-97.4049,4.384,1111122 
TCOON,ioos:station:TCOON:068:1,2014-09-05T13:12:00Z,27.2970,-97.4049,4.38,1111122 
TCOON,ioos:station:TCOON:068:1,2014-09-05T14:12:00Z,27.2970,-97.4049,4.377,1111122 
TCOON,ioos:station:TCOON:068:1,2014-09-05T15:12:00Z,27.2970,-97.4049,4.375,1111122 
TCOON,ioos:station:TCOON:068:1,2014-09-05T16:12:00Z,27.2970,-97.4049,4.373,1111122 
TCOON,ioos:station:TCOON:068:1,2014-09-05T17:12:00Z,27.2970,-97.4049,4.368,1111122 
TCOON,ioos:station:TCOON:068:1,2014-09-05T18:12:00Z,27.2970,-97.4049,4.365,1111122 
TCOON,ioos:station:TCOON:068:1,2014-09-05T19:12:00Z,27.2970,-97.4049,4.362,1111122 
TCOON,ioos:station:TCOON:068:1,2014-09-05T20:12:00Z,27.2970,-97.4049,4.366,1111122 
TCOON,ioos:station:TCOON:068:1,2014-09-05T21:30:00Z,27.2970,-97.4049,4.375,1111122 
TCOON,ioos:station:TCOON:068:1,2014-09-05T22:12:00Z,27.2970,-97.4049,4.376,1111122 
TCOON,ioos:station:TCOON:068:1,2014-09-05T23:12:00Z,27.2970,-97.4049,4.375,1111122 
TCOON,ioos:station:TCOON:068:1,2014-09-06T00:12:00Z,27.2970,-97.4049,4.374,1111122 
TCOON,ioos:station:TCOON:068:1,2014-09-06T01:12:00Z,27.2970,-97.4049,4.373,1111122 
TCOON,ioos:station:TCOON:068:1,2014-09-06T02:18:00Z,27.2970,-97.4049,4.381,1111122 
TCOON,ioos:station:TCOON:068:1,2014-09-06T03:18:00Z,27.2970,-97.4049,4.378,1111122 
TCOON,ioos:station:TCOON:068:1,2014-09-06T04:12:00Z,27.2970,-97.4049,4.377,1111122 
TCOON,ioos:station:TCOON:068:1,2014-09-06T05:12:00Z,27.2970,-97.4049,4.381,1111122 
TCOON,ioos:station:TCOON:068:1,2014-09-06T06:12:00Z,27.2970,-97.4049,4.381,1111122 
TCOON,ioos:station:TCOON:068:1,2014-09-06T07:12:00Z,27.2970,-97.4049,4.381,1111122 
TCOON,ioos:station:TCOON:068:1,2014-09-06T08:12:00Z,27.2970,-97.4049,4.381,1111122 
TCOON,ioos:station:TCOON:068:1,2014-09-06T09:30:00Z,27.2970,-97.4049,4.37,1111122 
TCOON,ioos:station:TCOON:068:1,2014-09-06T10:12:00Z,27.2970,-97.4049,4.37,1111122 
TCOON,ioos:station:TCOON:068:1,2014-09-06T11:18:00Z,27.2970,-97.4049,4.368,1111122 
TCOON,ioos:station:TCOON:068:1,2014-09-06T12:12:00Z,27.2970,-97.4049,4.367,1111122 
TCOON,ioos:station:TCOON:068:1,2014-09-06T13:12:00Z,27.2970,-97.4049,4.362,1111122 
TCOON,ioos:station:TCOON:068:1,2014-09-06T14:12:00Z,27.2970,-97.4049,4.362,1111122 
TCOON,ioos:station:TCOON:068:1,2014-09-06T15:12:00Z,27.2970,-97.4049,4.359,1111122 
TCOON,ioos:station:TCOON:068:1,2014-09-06T16:12:00Z,27.2970,-97.4049,4.36,1111122 
TCOON,ioos:station:TCOON:068:1,2014-09-06T17:12:00Z,27.2970,-97.4049,4.349,1111122 
TCOON,ioos:station:TCOON:068:1,2014-09-06T18:12:00Z,27.2970,-97.4049,4.352,1111122 
TCOON,ioos:station:TCOON:068:1,2014-09-06T19:12:00Z,27.2970,-97.4049,4.356,1111122 
TCOON,ioos:station:TCOON:068:1,2014-09-06T20:12:00Z,27.2970,-97.4049,4.35,1111122 
TCOON,ioos:station:TCOON:068:1,2014-09-06T21:12:00Z,27.2970,-97.4049,4.34,1111122 
TCOON,ioos:station:TCOON:068:1,2014-09-06T22:12:00Z,27.2970,-97.4049,4.334,1111122 
TCOON,ioos:station:TCOON:068:1,2014-09-06T23:12:00Z,27.2970,-97.4049,4.337,1111122 
TCOON,ioos:station:TCOON:068:1,2014-09-07T00:12:00Z,27.2970,-97.4049,4.338,1111122 
TCOON,ioos:station:TCOON:068:1,2014-09-07T01:12:00Z,27.2970,-97.4049,4.34,1111122 
TCOON,ioos:station:TCOON:068:1,2014-09-07T02:12:00Z,27.2970,-97.4049,4.338,1111122 
TCOON,ioos:station:TCOON:068:1,2014-09-07T03:30:00Z,27.2970,-97.4049,4.357,1111122 
TCOON,ioos:station:TCOON:068:1,2014-09-07T04:12:00Z,27.2970,-97.4049,4.357,1111122 
TCOON,ioos:station:TCOON:068:1,2014-09-07T05:12:00Z,27.2970,-97.4049,4.356,1111122 
TCOON,ioos:station:TCOON:068:1,2014-09-07T06:30:00Z,27.2970,-97.4049,4.358,1111122 
TCOON,ioos:station:TCOON:068:1,2014-09-07T07:12:00Z,27.2970,-97.4049,4.356,1111122 
TCOON,ioos:station:TCOON:068:1,2014-09-07T08:12:00Z,27.2970,-97.4049,4.357,1111122 
TCOON,ioos:station:TCOON:068:1,2014-09-07T09:18:00Z,27.2970,-97.4049,4.345,1111122 
TCOON,ioos:station:TCOON:068:1,2014-09-07T10:12:00Z,27.2970,-97.4049,4.344,1111122 
TCOON,ioos:station:TCOON:068:1,2014-09-07T11:12:00Z,27.2970,-97.4049,4.343,1111122 
TCOON,ioos:station:TCOON:068:1,2014-09-07T12:12:00Z,27.2970,-97.4049,4.336,1111122 
TCOON,ioos:station:TCOON:068:1,2014-09-07T13:12:00Z,27.2970,-97.4049,4.333,1111122 
TCOON,ioos:station:TCOON:068:1,2014-09-07T14:12:00Z,27.2970,-97.4049,4.33,1111122 
TCOON,ioos:station:TCOON:068:1,2014-09-07T15:12:00Z,27.2970,-97.4049,4.323,1111122 
TCOON,ioos:station:TCOON:068:1,2014-09-07T16:18:00Z,27.2970,-97.4049,4.322,1111122 
TCOON,ioos:station:TCOON:068:1,2014-09-07T17:18:00Z,27.2970,-97.4049,4.319,1111122 
TCOON,ioos:station:TCOON:068:1,2014-09-07T18:12:00Z,27.2970,-97.4049,4.315,1111122 
TCOON,ioos:station:TCOON:068:1,2014-09-07T19:18:00Z,27.2970,-97.4049,4.308,1111122 
TCOON,ioos:station:TCOON:068:1,2014-09-07T20:12:00Z,27.2970,-97.4049,4.304,1111122 
TCOON,ioos:station:TCOON:068:1,2014-09-07T21:12:00Z,27.2970,-97.4049,4.313,1111122 
TCOON,ioos:station:TCOON:068:1,2014-09-07T22:30:00Z,27.2970,-97.4049,4.306,1111122 
TCOON,ioos:station:TCOON:068:1,2014-09-07T23:12:00Z,27.2970,-97.4049,4.311,1111122 
TCOON,ioos:station:TCOON:068:1,2014-09-08T00:12:00Z,27.2970,-97.4049,4.308,1111122 
TCOON,ioos:station:TCOON:068:1,2014-09-08T01:12:00Z,27.2970,-97.4049,4.31,1111122 
TCOON,ioos:station:TCOON:068:1,2014-09-08T02:24:00Z,27.2970,-97.4049,4.32,1111122 
TCOON,ioos:station:TCOON:068:1,2014-09-08T03:18:00Z,27.2970,-97.4049,4.323,1111122 
TCOON,ioos:station:TCOON:068:1,2014-09-08T04:12:00Z,27.2970,-97.4049,4.324,1111122 
TCOON,ioos:station:TCOON:068:1,2014-09-08T05:12:00Z,27.2970,-97.4049,4.327,1111122 
TCOON,ioos:station:TCOON:068:1,2014-09-08T06:54:00Z,27.2970,-97.4049,4.345,1111122 
TCOON,ioos:station:TCOON:068:1,2014-09-08T07:12:00Z,27.2970,-97.4049,4.329,1111122 
TCOON,ioos:station:TCOON:068:1,2014-09-08T08:12:00Z,27.2970,-97.4049,4.326,1111122 
TCOON,ioos:station:TCOON:068:1,2014-09-08T09:12:00Z,27.2970,-97.4049,4.327,1111122 
TCOON,ioos:station:TCOON:068:1,2014-09-08T10:12:00Z,27.2970,-97.4049,4.324,1111122 
TCOON,ioos:station:TCOON:068:1,2014-09-08T11:18:00Z,27.2970,-97.4049,4.321,1111122 
TCOON,ioos:station:TCOON:068:1,2014-09-08T12:12:00Z,27.2970,-97.4049,4.318,1111122 
TCOON,ioos:station:TCOON:068:1,2014-09-08T13:12:00Z,27.2970,-97.4049,4.317,1111122 
TCOON,ioos:station:TCOON:068:1,2014-09-08T14:18:00Z,27.2970,-97.4049,4.311,1111122 
TCOON,ioos:station:TCOON:068:1,2014-09-08T15:18:00Z,27.2970,-97.4049,4.307,1111122 
TCOON,ioos:station:TCOON:068:1,2014-09-08T16:12:00Z,27.2970,-97.4049,4.303,1111122 
TCOON,ioos:station:TCOON:068:1,2014-09-08T17:18:00Z,27.2970,-97.4049,4.302,1111122 
TCOON,ioos:station:TCOON:068:1,2014-09-08T18:12:00Z,27.2970,-97.4049,4.302,1111122 
TCOON,ioos:station:TCOON:068:1,2014-09-08T19:24:00Z,27.2970,-97.4049,4.296,1111122 
TCOON,ioos:station:TCOON:068:1,2014-09-08T20:18:00Z,27.2970,-97.4049,4.288,1111122 
TCOON,ioos:station:TCOON:068:1,2014-09-08T21:12:00Z,27.2970,-97.4049,4.282,1111122 
TCOON,ioos:station:TCOON:068:1,2014-09-08T22:18:00Z,27.2970,-97.4049,4.278,1111122 
TCOON,ioos:station:TCOON:068:1,2014-09-08T23:24:00Z,27.2970,-97.4049,4.281,1111122 
TCOON,ioos:station:TCOON:068:1,2014-09-09T00:12:00Z,27.2970,-97.4049,4.278,1111122 
TCOON,ioos:station:TCOON:068:1,2014-09-09T01:12:00Z,27.2970,-97.4049,4.274,1111122 
TCOON,ioos:station:TCOON:068:1,2014-09-09T02:12:00Z,27.2970,-97.4049,4.285,1111122 
TCOON,ioos:station:TCOON:068:1,2014-09-09T03:18:00Z,27.2970,-97.4049,4.293,1111122 
TCOON,ioos:station:TCOON:068:1,2014-09-09T04:12:00Z,27.2970,-97.4049,4.297,1111122 
TCOON,ioos:station:TCOON:068:1,2014-09-09T05:18:00Z,27.2970,-97.4049,4.295,1111122 
TCOON,ioos:station:TCOON:068:1,2014-09-09T06:54:00Z,27.2970,-97.4049,4.298,1111122 
TCOON,ioos:station:TCOON:068:1,2014-09-09T07:18:00Z,27.2970,-97.4049,4.297,1111122 
TCOON,ioos:station:TCOON:068:1,2014-09-09T08:18:00Z,27.2970,-97.4049,4.297,1111122 
TCOON,ioos:station:TCOON:068:1,2014-09-09T09:12:00Z,27.2970,-97.4049,4.295,1111122 
TCOON,ioos:station:TCOON:068:1,2014-09-09T10:12:00Z,27.2970,-97.4049,4.296,1111122 
TCOON,ioos:station:TCOON:068:1,2014-09-09T11:18:00Z,27.2970,-97.4049,4.294,1111122 
TCOON,ioos:station:TCOON:068:1,2014-09-09T12:18:00Z,27.2970,-97.4049,4.298,1111122 
TCOON,ioos:station:TCOON:068:1,2014-09-09T13:12:00Z,27.2970,-97.4049,4.293,1111122 
TCOON,ioos:station:TCOON:068:1,2014-09-09T14:12:00Z,27.2970,-97.4049,4.293,1111122 
TCOON,ioos:station:TCOON:068:1,2014-09-09T15:12:00Z,27.2970,-97.4049,4.29,1111122 
TCOON,ioos:station:TCOON:068:1,2014-09-09T16:12:00Z,27.2970,-97.4049,4.286,1111122 
TCOON,ioos:station:TCOON:068:1,2014-09-09T17:18:00Z,27.2970,-97.4049,4.279,1111122 
TCOON,ioos:station:TCOON:068:1,2014-09-09T18:18:00Z,27.2970,-97.4049,4.272,1111122 
TCOON,ioos:station:TCOON:068:1,2014-09-10T01:48:00Z,27.2970,-97.4049,4.249,1111122 
TCOON,ioos:station:TCOON:068:1,2014-09-10T02:24:00Z,27.2970,-97.4049,4.253,1111122 
TCOON,ioos:station:TCOON:068:1,2014-09-10T03:12:00Z,27.2970,-97.4049,4.26,1111122 
TCOON,ioos:station:TCOON:068:1,2014-09-10T04:12:00Z,27.2970,-97.4049,4.26,1111122 
TCOON,ioos:station:TCOON:068:1,2014-09-10T05:18:00Z,27.2970,-97.4049,4.266,1111122 
TCOON,ioos:station:TCOON:068:1,2014-09-10T06:54:00Z,27.2970,-97.4049,4.266,1111122 
TCOON,ioos:station:TCOON:068:1,2014-09-10T07:18:00Z,27.2970,-97.4049,4.267,1111122 
TCOON,ioos:station:TCOON:068:1,2014-09-10T08:18:00Z,27.2970,-97.4049,4.262,1111122 
TCOON,ioos:station:TCOON:068:1,2014-09-10T11:30:00Z,27.2970,-97.4049,4.255,1111122 
TCOON,ioos:station:TCOON:068:1,2014-09-10T12:12:00Z,27.2970,-97.4049,4.25,1111122 
TCOON,ioos:station:TCOON:068:1,2014-09-10T13:12:00Z,27.2970,-97.4049,4.251,1111122 
TCOON,ioos:station:TCOON:068:1,2014-09-10T14:12:00Z,27.2970,-97.4049,4.252,1111122 
TCOON,ioos:station:TCOON:068:1,2014-09-10T15:24:00Z,27.2970,-97.4049,4.246,1111122 
TCOON,ioos:station:TCOON:068:1,2014-09-10T16:30:00Z,27.2970,-97.4049,4.244,1111122 
TCOON,ioos:station:TCOON:068:1,2014-09-10T17:12:00Z,27.2970,-97.4049,4.235,1111122 
TCOON,ioos:station:TCOON:068:1,2014-09-10T18:18:00Z,27.2970,-97.4049,4.231,1111122 
TCOON,ioos:station:TCOON:068:1,2014-09-10T19:18:00Z,27.2970,-97.4049,4.216,1111122 
TCOON,ioos:station:TCOON:068:1,2014-09-10T20:18:00Z,27.2970,-97.4049,4.209,1111122 
TCOON,ioos:station:TCOON:068:1,2014-09-10T21:30:00Z,27.2970,-97.4049,4.198,1111122 
TCOON,ioos:station:TCOON:068:1,2014-09-10T22:30:00Z,27.2970,-97.4049,4.199,1111122 
TCOON,ioos:station:TCOON:068:1,2014-09-10T23:12:00Z,27.2970,-97.4049,4.197,1111122 
TCOON,ioos:station:TCOON:068:1,2014-09-11T00:18:00Z,27.2970,-97.4049,4.19,1111122 
TCOON,ioos:station:TCOON:068:1,2014-09-11T01:12:00Z,27.2970,-97.4049,4.192,1111122 
TCOON,ioos:station:TCOON:068:1,2014-09-11T02:12:00Z,27.2970,-97.4049,4.204,1111122 
TCOON,ioos:station:TCOON:068:1,2014-09-11T04:24:00Z,27.2970,-97.4049,4.218,1111122 
TCOON,ioos:station:TCOON:068:1,2014-09-11T05:12:00Z,27.2970,-97.4049,4.22,1111122 
TCOON,ioos:station:TCOON:068:1,2014-09-11T06:54:00Z,27.2970,-97.4049,4.222,1111122 
TCOON,ioos:station:TCOON:068:1,2014-09-11T07:12:00Z,27.2970,-97.4049,4.223,1111122 
TCOON,ioos:station:TCOON:068:1,2014-09-11T08:12:00Z,27.2970,-97.4049,4.222,1111122 
TCOON,ioos:station:TCOON:068:1,2014-09-11T09:24:00Z,27.2970,-97.4049,4.217,1111122 
TCOON,ioos:station:TCOON:068:1,2014-09-11T10:18:00Z,27.2970,-97.4049,4.222,1111122 
TCOON,ioos:station:TCOON:068:1,2014-09-11T12:00:00Z,27.2970,-97.4049,4.209,1111122 
TCOON,ioos:station:TCOON:068:1,2014-09-12T11:12:00Z,27.2970,-97.4049,4.209,1111122 
TCOON,ioos:station:TCOON:068:1,2014-09-12T12:12:00Z,27.2970,-97.4049,4.212,1111122 
TCOON,ioos:station:TCOON:068:1,2014-09-12T13:18:00Z,27.2970,-97.4049,4.211,1111122 
TCOON,ioos:station:TCOON:068:1,2014-09-12T14:12:00Z,27.2970,-97.4049,4.214,1111122 
TCOON,ioos:station:TCOON:068:1,2014-09-12T15:12:00Z,27.2970,-97.4049,4.217,1111122 
TCOON,ioos:station:TCOON:068:1,2014-09-12T16:12:00Z,27.2970,-97.4049,4.212,1111122 
TCOON,ioos:station:TCOON:068:1,2014-09-12T17:12:00Z,27.2970,-97.4049,4.208,1111122 
TCOON,ioos:station:TCOON:068:1,2014-09-12T18:12:00Z,27.2970,-97.4049,4.196,1111122 
TCOON,ioos:station:TCOON:068:1,2014-09-12T19:12:00Z,27.2970,-97.4049,4.191,1111122 
TCOON,ioos:station:TCOON:068:1,2014-09-12T20:12:00Z,27.2970,-97.4049,4.189,1111122 
TCOON,ioos:station:TCOON:068:1,2014-09-12T21:12:00Z,27.2970,-97.4049,4.201,1111122 
TCOON,ioos:station:TCOON:068:1,2014-09-12T22:12:00Z,27.2970,-97.4049,4.211,1111122 
TCOON,ioos:station:TCOON:068:1,2014-09-12T23:12:00Z,27.2970,-97.4049,4.225,1111122 
TCOON,ioos:station:TCOON:068:1,2014-09-13T00:12:00Z,27.2970,-97.4049,4.231,1111122 
TCOON,ioos:station:TCOON:068:1,2014-09-13T01:12:00Z,27.2970,-97.4049,4.223,1111122 
TCOON,ioos:station:TCOON:068:1,2014-09-13T02:12:00Z,27.2970,-97.4049,4.207,1111122 
TCOON,ioos:station:TCOON:068:1,2014-09-13T03:12:00Z,27.2970,-97.4049,4.194,1111122 
TCOON,ioos:station:TCOON:068:1,2014-09-13T04:18:00Z,27.2970,-97.4049,4.19,1111122 
TCOON,ioos:station:TCOON:068:1,2014-09-13T05:12:00Z,27.2970,-97.4049,4.207,1111122 
TCOON,ioos:station:TCOON:068:1,2014-09-13T06:18:00Z,27.2970,-97.4049,4.225,1111122 
TCOON,ioos:station:TCOON:068:1,2014-09-13T07:12:00Z,27.2970,-97.4049,4.23,1111122 
TCOON,ioos:station:TCOON:068:1,2014-09-13T08:12:00Z,27.2970,-97.4049,4.232,1111122 
TCOON,ioos:station:TCOON:068:1,2014-09-13T09:12:00Z,27.2970,-97.4049,4.227,1111122 
TCOON,ioos:station:TCOON:068:1,2014-09-13T10:12:00Z,27.2970,-97.4049,4.232,1111122 
TCOON,ioos:station:TCOON:068:1,2014-09-13T11:18:00Z,27.2970,-97.4049,4.224,1111122 
TCOON,ioos:station:TCOON:068:1,2014-09-13T12:12:00Z,27.2970,-97.4049,4.23,1111122 
TCOON,ioos:station:TCOON:068:1,2014-09-13T13:12:00Z,27.2970,-97.4049,4.216,1111122 
TCOON,ioos:station:TCOON:068:1,2014-09-13T14:12:00Z,27.2970,-97.4049,4.309,1111122 
TCOON,ioos:station:TCOON:068:1,2014-09-13T15:12:00Z,27.2970,-97.4049,4.307,1111122 
TCOON,ioos:station:TCOON:068:1,2014-09-13T16:12:00Z,27.2970,-97.4049,4.271,1111122 
TCOON,ioos:station:TCOON:068:1,2014-09-13T17:12:00Z,27.2970,-97.4049,4.297,1111122 
TCOON,ioos:station:TCOON:068:1,2014-09-13T18:12:00Z,27.2970,-97.4049,4.317,1111122 
TCOON,ioos:station:TCOON:068:1,2014-09-13T19:12:00Z,27.2970,-97.4049,4.301,1111122 
TCOON,ioos:station:TCOON:068:1,2014-09-13T20:12:00Z,27.2970,-97.4049,4.291,1111122 
TCOON,ioos:station:TCOON:068:1,2014-09-13T21:12:00Z,27.2970,-97.4049,4.282,1111122 
TCOON,ioos:station:TCOON:068:1,2014-09-13T22:12:00Z,27.2970,-97.4049,4.285,1111122 
TCOON,ioos:station:TCOON:068:1,2014-09-13T23:12:00Z,27.2970,-97.4049,4.315,1111122 
TCOON,ioos:station:TCOON:068:1,2014-09-14T00:18:00Z,27.2970,-97.4049,4.324,1111122 
TCOON,ioos:station:TCOON:068:1,2014-09-14T01:12:00Z,27.2970,-97.4049,4.319,1111122 
TCOON,ioos:station:TCOON:068:1,2014-09-14T02:18:00Z,27.2970,-97.4049,4.31,1111122 
TCOON,ioos:station:TCOON:068:1,2014-09-14T03:12:00Z,27.2970,-97.4049,4.373,1111122 
TCOON,ioos:station:TCOON:068:1,2014-09-14T04:12:00Z,27.2970,-97.4049,4.369,1111122 
TCOON,ioos:station:TCOON:068:1,2014-09-14T05:12:00Z,27.2970,-97.4049,4.37,1111122 
TCOON,ioos:station:TCOON:068:1,2014-09-14T06:18:00Z,27.2970,-97.4049,4.37,1111122 
TCOON,ioos:station:TCOON:068:1,2014-09-14T07:12:00Z,27.2970,-97.4049,4.37,1111122 
TCOON,ioos:station:TCOON:068:1,2014-09-14T08:12:00Z,27.2970,-97.4049,4.366,1111122 
TCOON,ioos:station:TCOON:068:1,2014-09-14T09:12:00Z,27.2970,-97.4049,4.369,1111122 